Flag for Colombia Weather past 2 weeks in Cartagena, Colombia

Now
79 °F

Passing clouds.


Feels Like: 82 °F
Forecast: 78 / 87 °F
Wind: 5 mph from Southwest

Location: Cartagena / Rafael Nunez


UV Index: 7 (High)

Visibility: N/A


Pressure: 29.83 "Hg

Humidity: 84%

Dew point: 73 °F

Location of CartagenaLocation

Historic Weather in Cartagena

°F

Cartagena temperature yesterday

Maximum temperature yesterday: 90 °F (at 11:00 AM)
Minimum temperature yesterday: 79 °F (at 12:00 AM)
Average temperature yesterday: 82 °F

Past Weeks' High & Low Weather Summary

 TemperatureHumidityPressure
High95 °F (Apr 8, 12:00 PM)94% (Apr 2, 4:00 AM)29.90 "Hg (Apr 2, 4:00 AM)
Low77 °F (Apr 1, 5:00 AM)55% (Apr 12, 9:00 AM)29.70 "Hg (Apr 11, 4:00 PM)
Average83 °F79%29.79 "Hg
* Reported Apr 1 2:00 AM — Apr 16 2:00 AM, Cartagena, Weather by CustomWeather, © 2014

Note: Actual official high and low records may vary slightly from our data, if they occured in-between our weather recording intervals... More about our weather records

Advertising

Historic Weather Conditions — Data for Previous 24 hours

 ConditionsComfort  
Time TempWeatherWind HumidityBarometerVisibility
2:00 AM
Apr 16
79 °FPassing clouds.5 mph84%29.84 "HgN/A
1:00 AM79 °FPassing clouds.5 mph84%29.84 "HgN/A
12:00 AM79 °FClear.5 mph84%29.84 "Hg10 mi
10:00 PM
Apr 15
79 °FClear.5 mph84%29.84 "Hg10 mi
9:00 PM79 °FClear.7 mph89%29.81 "Hg10 mi
8:00 PM81 °FClear.7 mph79%29.79 "Hg10 mi
6:00 PM82 °FSunny.5 mph74%29.75 "Hg10 mi
5:00 PM84 °FSunny.9 mph74%29.74 "Hg10 mi
4:00 PM84 °FScattered clouds.12 mph70%29.72 "HgN/A
3:00 PM84 °FPassing clouds.10 mph74%29.74 "HgN/A
2:00 PM86 °FPassing clouds.7 mph70%29.75 "HgN/A
1:00 PM86 °FPassing clouds.9 mph75%29.78 "HgN/A
12:00 PM88 °FPassing clouds.8 mph70%29.79 "HgN/A
11:00 AM90 °FScattered clouds.6 mph63%29.80 "HgN/A
10:00 AM86 °FPassing clouds.7 mph75%29.81 "HgN/A
9:00 AM86 °FScattered clouds.5 mph70%29.81 "HgN/A
8:00 AM82 °FScattered clouds.6 mph79%29.79 "HgN/A
7:00 AM79 °FScattered clouds.2 mph89%29.77 "Hg6 mi
6:00 AM79 °FScattered clouds.3 mph89%29.76 "Hg5 mi
5:00 AM79 °FPassing clouds.3 mph84%29.75 "HgN/A
4:00 AM79 °FPassing clouds.6 mph84%29.75 "HgN/A
3:00 AM79 °FPassing clouds.No wind84%29.76 "HgN/A
Weather by CustomWeather, © 2014

See weather overview